Date,TemperatureHighF,TemperatureAvgF,TemperatureLowF,DewpointHighF,DewpointAvgF,DewpointLowF,HumidityHigh,HumidityAvg,HumidityLow,PressureMaxIn,PressureMinIn,WindSpeedMaxMPH,WindSpeedAvgMPH,GustSpeedMaxMPH,PrecipitationSumIn
2013-10-2,77,73,68,-100,-100,-100,0,0,100,30.13,30.06,11,6,13,0.00
2013-10-3,78,74,70,-100,-100,-100,0,0,100,30.16,30.10,7,5,8,0.00
2013-10-4,77,75,73,-100,-100,-100,0,0,100,30.16,30.08,8,5,9,0.00
2013-10-5,78,74,72,-100,-100,-100,0,0,100,30.13,30.07,7,4,7,0.00
2013-10-6,77,76,75,-100,-100,-100,0,0,100,30.09,30.00,13,8,14,0.00
2013-10-7,79,77,76,-100,-100,-100,0,0,100,29.99,29.88,18,14,21,0.00
2013-10-8,77,70,66,-100,-100,-100,0,0,100,30.03,29.90,38,24,43,0.00
2013-10-9,69,67,65,-100,-100,-100,0,0,100,30.01,29.84,32,27,41,0.00
2013-10-10,66,64,62,-100,-100,-100,0,0,100,29.89,29.80,24,19,30,0.00
2013-10-11,66,64,62,-100,-100,-100,0,0,100,29.94,29.85,15,12,18,0.00
2013-10-12,69,66,64,-100,-100,-100,0,0,100,30.03,29.92,9,6,11,0.00
2013-10-13,76,70,67,-100,-100,-100,0,0,100,30.08,30.01,22,13,24,0.00
2013-10-14,72,70,68,-100,-100,-100,0,0,100,30.11,30.06,26,20,30,0.00
2013-10-15,72,68,66,-100,-100,-100,0,0,100,30.08,29.97,21,17,25,0.00
2013-10-16,71,69,68,-100,-100,-100,0,0,100,29.98,29.94,18,12,21,0.00
2013-10-17,72,70,65,-100,-100,-100,0,0,100,29.98,29.89,9,7,13,0.00
2013-10-18,73,71,69,-100,-100,-100,0,0,100,30.01,29.89,15,10,16,0.00
2013-10-19,75,72,70,-100,-100,-100,0,0,100,29.96,29.85,14,7,16,0.00
2013-10-20,73,66,63,-100,-100,-100,0,0,100,30.09,29.87,20,15,25,0.00
2013-10-21,68,65,62,-100,-100,-100,0,0,100,30.13,29.99,21,13,22,0.00
2013-10-22,67,65,63,-100,-100,-100,0,0,100,29.99,29.86,15,6,18,0.00
2013-10-23,70,64,58,-100,-100,-100,0,0,100,29.90,29.66,23,13,26,0.00
2013-10-24,59,55,49,-100,-100,-100,0,0,100,30.16,29.93,24,14,28,0.00
2013-10-25,57,53,50,-100,-100,-100,0,0,100,30.33,30.16,20,14,25,0.00
2013-10-26,61,55,50,-100,-100,-100,0,0,100,30.33,30.11,15,10,17,0.00
2013-10-27,63,61,58,-100,-100,-100,0,0,100,30.16,30.06,17,9,21,0.00
2013-10-28,68,63,60,-100,-100,-100,0,0,100,30.26,30.15,8,4,10,0.00
2013-10-29,67,64,60,-100,-100,-100,0,0,100,30.32,30.23,13,9,14,0.00
2013-10-30,69,66,60,-100,-100,-100,0,0,100,30.31,30.21,11,5,13,0.00
2013-10-31,72,69,66,-100,-100,-100,0,0,100,30.23,30.04,15,8,22,0.00